CZ-4B R/B (49964 NORAD) Tracking and Keplerian Element Data

This shows tracking and keplerian element data for the satellite.

Feedback or suggestion? Click here.




ElementValue
Catalog49964
NameCZ-4B R/B
Epoch Orbit465
Epoch Day8.7686005
Epoch Year2022
RAAN27.1835
Inclination97.2678
Eccentricity0.0116574
Argument of Perigee254.2313
Mean Anonmoly104.6068
Mean Motion15.67630929
Decay Rate0.00044707
L11 49964U 21122D 22008.76860050 .00044707 27250-5 28417-3 0 9992
L22 49964 97.2678 27.1835 0116574 254.2313 104.6068 15.67630929 4651

Live tracking and technical data element details for CZ-4B R/B (NORAD 49964). CZ-4B R/B can be tracked NOW for your location showing map with azimuth and elevation plus other details from your city location.

Track the satellite on the map from your city or location and see movement details for azimuth, elevation, latitude, longitude, range, height, and movement on the map or in text.







IsCatalogInMostPopularTable: catalog: 49964, numindb: 24
Update: records affected: 1



GetName: 49964 CZ-4B R/B

Hit Count: updated at: Mon, 23 May 2022 21:20:13 GMT